TimeCST,TemperatureF,Dew PointF,Humidity,Sea Level PressureIn,VisibilityMPH,Wind Direction,Wind SpeedMPH,Gust SpeedMPH,PrecipitationIn,Events,Conditions,WindDirDegrees,DateUTC
12:53 AM,39.9,27.0,60,30.02,10.0,Calm,Calm,-,N/A,,Clear,0,2012-11-26 06:53:00
1:53 AM,37.9,26.1,62,30.04,10.0,Calm,Calm,-,N/A,,Clear,0,2012-11-26 07:53:00
2:53 AM,37.9,26.1,62,30.06,10.0,Variable,3.5,-,N/A,,Clear,0,2012-11-26 08:53:00
3:53 AM,37.0,26.1,65,30.06,10.0,Variable,3.5,-,N/A,,Clear,0,2012-11-26 09:53:00
4:53 AM,36.0,26.1,67,30.08,10.0,Variable,3.5,-,N/A,,Clear,0,2012-11-26 10:53:00
5:53 AM,35.1,26.1,70,30.11,10.0,NE,4.6,-,N/A,,Clear,40,2012-11-26 11:53:00
6:53 AM,35.1,25.0,67,30.12,10.0,NE,12.7,-,N/A,,Clear,50,2012-11-26 12:53:00
7:53 AM,36.0,24.1,62,30.15,10.0,NE,6.9,-,N/A,,Clear,50,2012-11-26 13:53:00
8:53 AM,36.0,24.1,62,30.17,10.0,NE,11.5,-,N/A,,Clear,50,2012-11-26 14:53:00
9:53 AM,37.0,25.0,62,30.20,10.0,NE,10.4,-,N/A,,Overcast,50,2012-11-26 15:53:00
10:53 AM,41.0,24.1,51,30.21,10.0,ENE,10.4,-,N/A,,Overcast,70,2012-11-26 16:53:00
11:53 AM,44.1,25.0,47,30.21,10.0,Variable,6.9,-,N/A,,Overcast,0,2012-11-26 17:53:00
12:53 PM,45.0,24.1,44,30.21,10.0,North,12.7,-,N/A,,Overcast,360,2012-11-26 18:53:00
1:53 PM,43.0,24.1,47,30.23,10.0,North,11.5,-,N/A,,Overcast,360,2012-11-26 19:53:00
2:53 PM,43.0,25.0,49,30.23,10.0,North,15.0,23.0,N/A,,Overcast,10,2012-11-26 20:53:00
3:53 PM,42.1,24.1,49,30.26,10.0,North,16.1,26.5,N/A,,Overcast,360,2012-11-26 21:53:00
4:53 PM,39.0,23.0,53,30.30,10.0,North,9.2,19.6,N/A,,Overcast,10,2012-11-26 22:53:00
5:53 PM,37.0,25.0,62,30.32,10.0,North,9.2,-,N/A,,Overcast,360,2012-11-26 23:53:00
6:53 PM,36.0,21.9,57,30.35,10.0,NNE,8.1,16.1,N/A,,Mostly Cloudy,20,2012-11-27 00:53:00
7:53 PM,33.1,21.0,61,30.37,10.0,North,6.9,-,N/A,,Partly Cloudy,350,2012-11-27 01:53:00
8:53 PM,32.0,21.0,64,30.40,10.0,North,8.1,-,N/A,,Mostly Cloudy,10,2012-11-27 02:53:00
9:53 PM,30.0,21.0,69,30.40,10.0,Calm,Calm,-,N/A,,Clear,0,2012-11-27 03:53:00
10:53 PM,28.9,21.0,72,30.42,10.0,Calm,Calm,-,N/A,,Clear,0,2012-11-27 04:53:00
11:53 PM,27.0,19.9,75,30.43,10.0,NW,3.5,-,N/A,,Clear,310,2012-11-27 05:53:00